TimeCST,TemperatureF,Dew PointF,Humidity,Sea Level PressureIn,VisibilityMPH,Wind Direction,Wind SpeedMPH,Gust SpeedMPH,PrecipitationIn,Events,Conditions,WindDirDegrees,DateUTC
12:16 AM,33.8,30.2,87,29.93,7.0,SSE,3.5,-,N/A,,Scattered Clouds,160,2013-02-07 06:16:00
12:35 AM,33.8,30.2,87,29.93,7.0,SSE,3.5,-,N/A,,Clear,150,2013-02-07 06:35:00
12:55 AM,33.8,30.2,87,29.92,7.0,SSE,3.5,-,N/A,,Scattered Clouds,150,2013-02-07 06:55:00
1:15 AM,33.8,30.2,87,29.92,7.0,SE,4.6,-,N/A,,Scattered Clouds,140,2013-02-07 07:15:00
1:35 AM,33.8,30.2,87,29.92,7.0,SSE,3.5,-,N/A,,Scattered Clouds,150,2013-02-07 07:35:00
1:56 AM,33.8,30.2,87,29.92,7.0,SE,3.5,-,N/A,,Mostly Cloudy,140,2013-02-07 07:56:00
2:15 AM,33.8,30.2,87,29.93,7.0,Calm,Calm,-,N/A,,Overcast,0,2013-02-07 08:15:00
2:35 AM,33.8,30.2,87,29.93,7.0,Calm,Calm,-,N/A,,Overcast,0,2013-02-07 08:35:00
2:55 AM,33.8,30.2,87,29.93,7.0,Calm,Calm,-,N/A,,Overcast,0,2013-02-07 08:55:00
3:15 AM,33.8,30.2,87,29.92,5.0,Calm,Calm,-,N/A,,Overcast,0,2013-02-07 09:15:00
3:36 AM,32.0,28.4,87,29.92,5.0,Calm,Calm,-,N/A,,Overcast,0,2013-02-07 09:36:00
3:55 AM,30.2,28.4,93,29.91,5.0,Calm,Calm,-,N/A,,Mostly Cloudy,0,2013-02-07 09:55:00
4:15 AM,30.2,28.4,93,29.91,2.0,Calm,Calm,-,N/A,,Clear,0,2013-02-07 10:15:00
4:35 AM,30.2,28.4,93,29.91,2.5,Calm,Calm,-,N/A,,Clear,0,2013-02-07 10:35:00
4:55 AM,28.4,26.6,93,29.92,1.8,Calm,Calm,-,N/A,,Mist,0,2013-02-07 10:55:00
5:16 AM,28.4,26.6,93,29.92,2.0,Calm,Calm,-,N/A,,Clear,0,2013-02-07 11:16:00
5:35 AM,28.4,26.6,93,29.92,2.5,Calm,Calm,-,N/A,,Clear,0,2013-02-07 11:35:00
5:55 AM,28.4,26.6,93,29.92,2.0,Calm,Calm,-,N/A,,Mostly Cloudy,0,2013-02-07 11:55:00
6:15 AM,28.4,26.6,93,29.93,2.5,Calm,Calm,-,N/A,,Mostly Cloudy,0,2013-02-07 12:15:00
6:35 AM,28.4,26.6,93,29.93,3.0,NNE,5.8,-,N/A,,Overcast,20,2013-02-07 12:35:00
6:55 AM,28.4,26.6,93,29.93,3.0,NNE,5.8,-,N/A,,Overcast,20,2013-02-07 12:55:00
7:15 AM,28.4,28.4,100,29.94,2.5,NE,5.8,-,N/A,,Overcast,40,2013-02-07 13:15:00
7:35 AM,30.2,28.4,93,29.95,1.8,North,4.6,-,N/A,,Overcast,10,2013-02-07 13:35:00
7:56 AM,30.2,28.4,93,29.95,1.0,North,5.8,-,N/A,,Overcast,10,2013-02-07 13:56:00
8:15 AM,28.4,26.6,93,29.96,1.0,NNE,4.6,-,N/A,,Overcast,20,2013-02-07 14:15:00
8:35 AM,28.4,28.4,100,29.97,1.2,NNE,5.8,-,N/A,,Overcast,20,2013-02-07 14:35:00
8:56 AM,28.4,26.6,93,29.98,1.2,North,8.1,-,N/A,,Overcast,10,2013-02-07 14:56:00
9:15 AM,28.4,26.6,93,29.99,1.2,North,6.9,-,N/A,,Overcast,10,2013-02-07 15:15:00
9:35 AM,28.4,26.6,93,29.99,1.5,North,9.2,-,N/A,,Overcast,350,2013-02-07 15:35:00
9:56 AM,26.6,24.8,93,30.00,1.5,North,9.2,16.1,N/A,,Overcast,350,2013-02-07 15:56:00
10:15 AM,26.6,24.8,93,29.99,1.2,North,10.4,-,N/A,,Overcast,360,2013-02-07 16:15:00
10:35 AM,26.6,24.8,93,29.99,0.8,North,11.5,-,N/A,,Overcast,10,2013-02-07 16:35:00
10:56 AM,26.6,24.8,93,30.00,0.2,North,11.5,-,N/A,Fog,Light Freezing Fog,10,2013-02-07 16:56:00
11:15 AM,26.6,24.8,93,30.00,0.2,North,9.2,-,N/A,Fog,Light Freezing Fog,360,2013-02-07 17:15:00
11:35 AM,26.6,24.8,93,30.00,0.2,North,11.5,-,N/A,Fog,Light Freezing Fog,10,2013-02-07 17:35:00
11:56 AM,26.6,24.8,93,30.00,0.5,North,8.1,17.3,N/A,Fog,Light Freezing Fog,360,2013-02-07 17:56:00
12:15 PM,26.6,24.8,93,29.99,0.5,North,10.4,16.1,N/A,Fog,Light Freezing Fog,360,2013-02-07 18:15:00
12:35 PM,26.6,24.8,93,29.99,0.5,North,8.1,-,N/A,Fog,Light Freezing Fog,350,2013-02-07 18:35:00
12:56 PM,26.6,24.8,93,30.00,0.8,North,12.7,18.4,N/A,,Overcast,360,2013-02-07 18:56:00
1:15 PM,26.6,24.8,93,30.00,0.8,North,11.5,21.9,N/A,,Overcast,350,2013-02-07 19:15:00
1:35 PM,26.6,24.8,93,30.00,1.0,North,10.4,23.0,N/A,,Overcast,360,2013-02-07 19:35:00
1:56 PM,26.6,24.8,93,30.00,1.2,North,10.4,19.6,N/A,,Overcast,350,2013-02-07 19:56:00
2:15 PM,26.6,24.8,93,30.00,0.8,North,11.5,19.6,N/A,,Overcast,360,2013-02-07 20:15:00
2:35 PM,26.6,24.8,93,30.00,1.0,North,13.8,20.7,N/A,,Overcast,350,2013-02-07 20:35:00
2:55 PM,26.6,24.8,93,30.01,1.5,North,11.5,20.7,N/A,,Overcast,360,2013-02-07 20:55:00
3:15 PM,26.6,23.0,86,30.02,2.0,North,10.4,-,N/A,,Overcast,360,2013-02-07 21:15:00
3:36 PM,26.6,23.0,86,30.02,2.0,North,13.8,19.6,N/A,,Overcast,360,2013-02-07 21:36:00
3:55 PM,26.6,23.0,86,30.03,2.0,North,9.2,17.3,N/A,,Overcast,360,2013-02-07 21:55:00
4:15 PM,26.6,23.0,86,30.04,2.5,North,10.4,18.4,N/A,,Overcast,360,2013-02-07 22:15:00
4:36 PM,26.6,23.0,86,30.05,2.5,North,12.7,20.7,N/A,,Overcast,350,2013-02-07 22:36:00
4:55 PM,24.8,23.0,93,30.06,2.5,North,10.4,18.4,N/A,,Overcast,350,2013-02-07 22:55:00
5:15 PM,24.8,21.2,86,30.06,2.0,North,10.4,-,N/A,,Overcast,350,2013-02-07 23:15:00
5:36 PM,24.8,21.2,86,30.07,3.0,North,13.8,18.4,N/A,Snow,Light Snow,350,2013-02-07 23:36:00
5:55 PM,24.8,21.2,86,30.09,3.0,North,10.4,18.4,N/A,Snow,Light Snow,350,2013-02-07 23:55:00
6:15 PM,24.8,23.0,93,30.10,4.0,North,10.4,18.4,N/A,,Overcast,350,2013-02-08 00:15:00
6:36 PM,24.8,21.2,86,30.10,7.0,North,9.2,17.3,N/A,,Overcast,360,2013-02-08 00:36:00
6:55 PM,24.8,21.2,86,30.11,7.0,North,10.4,17.3,N/A,,Overcast,350,2013-02-08 00:55:00
7:15 PM,24.8,21.2,86,30.12,7.0,North,11.5,21.9,N/A,,Overcast,360,2013-02-08 01:15:00
7:35 PM,24.8,21.2,86,30.12,10.0,North,12.7,19.6,N/A,,Overcast,350,2013-02-08 01:35:00
7:55 PM,24.8,21.2,86,30.13,10.0,North,11.5,16.1,N/A,,Overcast,350,2013-02-08 01:55:00
8:15 PM,24.8,21.2,86,30.13,10.0,North,10.4,-,N/A,,Overcast,350,2013-02-08 02:15:00
8:35 PM,24.8,19.4,80,30.14,10.0,North,9.2,-,N/A,,Overcast,350,2013-02-08 02:35:00
8:55 PM,24.8,19.4,80,30.14,10.0,North,11.5,16.1,N/A,,Overcast,350,2013-02-08 02:55:00
9:15 PM,24.8,19.4,80,30.14,10.0,North,8.1,-,N/A,,Overcast,360,2013-02-08 03:15:00
9:35 PM,24.8,19.4,80,30.15,10.0,North,9.2,-,N/A,,Overcast,350,2013-02-08 03:35:00
9:55 PM,24.8,19.4,80,30.16,10.0,North,6.9,-,N/A,,Overcast,350,2013-02-08 03:55:00
10:15 PM,24.8,19.4,80,30.16,10.0,North,8.1,-,N/A,,Overcast,350,2013-02-08 04:15:00
10:35 PM,24.8,19.4,80,30.16,10.0,North,9.2,-,N/A,,Overcast,350,2013-02-08 04:35:00
10:55 PM,24.8,19.4,80,30.17,10.0,North,6.9,-,N/A,,Overcast,360,2013-02-08 04:55:00
11:15 PM,24.8,19.4,80,30.17,10.0,North,6.9,-,N/A,,Overcast,350,2013-02-08 05:15:00
11:35 PM,24.8,19.4,80,30.18,10.0,North,6.9,-,N/A,,Overcast,360,2013-02-08 05:35:00
11:55 PM,24.8,19.4,80,30.19,10.0,North,4.6,-,N/A,,Overcast,360,2013-02-08 05:55:00